Location: Cisewo
(53.3833°N, 14.9000°E)
Time: 13:56:12
(UTC+00:00)

Cosmos 1570 Rocket - Pass Details

Date: 18 April 2021
Orbit: 763 x 788 km, 74.1° (Epoch: 16 May)

Event Time Altitude Azimuth Distance (km) Brightness Sun altitude
Rises 22:21:34 0° 331° (NNW) 3,276 8.4 -24.9°
Reaches altitude 10° 22:24:00 10° 327° (NNW) 2,340 7.4 -25.0°
Maximum altitude 22:29:09 53° 252° (WSW) 953 4.3 -25.1°
Enters shadow 22:29:23 52° 242° (WSW) 958 4.3 -25.1°
